Regional Weather Roundup
Issued by NWS

Home | Current Version | Previous Version | Text Only | Print | Product List | Glossary Off
Versions: 1 2 3 4 5 6 7 8 9 10 11 12 13 14 15 16 17 18 19 20 21 22 23 24 25 26 27 28 29 30 31 32 33 34 35 36 37 38 39 40 41 42 43 44 45 46 47 48 49 50

266
ASUS45 KBOU 221807
RWRCO

WEATHER ROUNDUP FOR COLORADO
NATIONAL WEATHER SERVICE DENVER/BOULDER CO
1100 AM MST SUN JAN 22 2017

NOTE: "FAIR" INDICATES FEW OR NO CLOUDS BELOW 12000 FEET WITH NO
SIGNIFICANT WEATHER AND/OR OBSTRUCTIONS TO VISIBILITY.

COZ001>005-013-030-031-221900-
...NORTHWEST COLORADO...

CITY           SKY/WX    TMP DP  RH WIND       PRES   REMARKS
CRAIG          FAIR      15  10  80 SE3       30.08S
HAYDEN         PTSUNNY   18  10  73 CALM      30.06S
MEEKER         FAIR      22  16  78 CALM      30.08S
MOUNT WERNER   NOT AVBL
STEAMBOAT SPGS FAIR      23  17  78 CALM      30.05S
WALDEN           N/A     21  10  63 SW14G23   30.00R VSB 1/2 WCI   8
$$

COZ006>008-011-221900-
...WEST CENTRAL VALLEYS...

CITY           SKY/WX    TMP DP  RH WIND       PRES   REMARKS
GRAND JUNCTION FAIR      34  26  72 SE6       30.12F WCI  29
MONTROSE       FAIR      31  18  58 CALM      30.17R
EAGLE          NOT AVBL
RIFLE          FAIR      30  20  66 S3        30.12F
DELTA          FAIR      37  22  55 E5        30.16S
NUCLA          FAIR      30  23  74 SE3       30.18F
$$

COZ017>023-064>068-221900-
...SOUTHWEST COLORADO...

CITY           SKY/WX    TMP DP  RH WIND       PRES   REMARKS
DURANGO        FAIR      18  13  80 NE6       30.18R WCI  10
CORTEZ         FAIR      25  20  81 N3        30.19R
PAGOSA SPRINGS FAIR      24  17  74 CALM      30.16R
TELLURIDE      FAIR      20   7  57 CALM      30.12R
WOLF CREEK PAS PTSUNNY    7   5  92 SW13G23   30.07S WCI  -9
$$

COZ009-010-012-014-032>034-037-058>063-221900-
...CENTRAL COLORADO...

CITY           SKY/WX    TMP DP  RH WIND       PRES   REMARKS
ASPEN          FAIR      26  17  68 NW3       30.05S
BUENA VISTA    FAIR      28   7  42 W20G28    29.99R WCI  14
COPPER MTN     NOT AVBL
BERTHOUD PASS  NOT AVBL
COTTONWOOD PAS FAIR      27  -4  26 W8G25     29.96R WCI  18
GUNNISON       FAIR      16   9  74 N7        30.12S WCI   6
KREMMLING      CLOUDY    28  18  64 CALM      30.07R
LEADVILLE      FAIR      18   3  52 N13       29.99R WCI   5
MONARCH PASS   CLOUDY     7   3  85 W7G16     30.06R WCI  -5
SALIDA         FAIR      33   5  30 W20G28    30.08R WCI  22
SUNLIGHT       CLOUDY   N/A N/A N/A MISG      30.05R
WILKERSON PASS FAIR      14   0  52 N8G17     29.95R WCI   3
$$

COZ069>075-221900-
...SAN LUIS VALLEY/SANGRE DE CRISTO MOUNTAINS...

CITY           SKY/WX    TMP DP  RH WIND       PRES   REMARKS
ALAMOSA        FAIR      22  13  68 S6        30.08R WCI  14
LA VETA PASS   FAIR      19  12  73 NE23G44   29.96R WCI   2
SAGUACHE       FAIR      28  10  47 NW12      30.06R WCI  18
$$

COZ035-036-038>040-221900-
...NORTHERN COLORADO FRONT RANGE...

CITY           SKY/WX    TMP DP  RH WIND       PRES   REMARKS
DENVER INTL AP FAIR      42  11  28 SW7       29.93F
DMNS CITY PARK   N/A     43   4  19 N1G10     29.93F
AURORA         MOSUNNY   40   8  27 W7        29.94F
FRONT RANGE AP MOSUNNY   41  12  30 SW5       29.95S
ERIE MUNI ARPT FAIR      44   6  20 W7        29.94S
BOULDER MUN AP FAIR      43   9  24 SW3       29.93S
CENTENNIAL     FAIR      39   8  27 NW12      29.94F
BROOMFIELD     MOSUNNY   41   5  22 W16G26    29.94R
FORT COLLINS   FAIR      41  18  38 SE6       29.94S
LONGMONT       FAIR      47   9  21 W9        29.95S
$$

COZ041-046-047-076>085-087-088-221900-
...PIKES PEAK/PALMER DIVIDE AND SOUTHERN FOOTHILLS...

CITY           SKY/WX    TMP DP  RH WIND       PRES   REMARKS
COLO. SPRINGS  FAIR      42  -3  15 NW10      29.94S
A. F. ACADEMY  FAIR      40  -6  13 NW8G18    29.92F
SCHRIEVER AFB  NOT AVBL
ELLICOTT       FAIR     N/A N/A N/A N12       29.93S
FALCON         FAIR      39  -3  16 NW13      29.94F
FORT CARSON    NOT AVBL
LIMON          FAIR      39  18  42 N16       29.95R
MONUMENT HILL  FAIR      32   7  34 NW9       29.95F WCI  24
TRINIDAD       FAIR      40  16  37 NW12      29.98S
$$

COZ042>045-048>051-090-091-221900-
...NORTHEAST COLORADO...

CITY           SKY/WX    TMP DP  RH WIND       PRES   REMARKS
GREELEY ARPT   FAIR      43  17  35 W7        29.96R
AKRON          FAIR      40  20  44 NW17      29.92S
BURLINGTON     FAIR      42  26  53 N15G24    29.92S
WRAY           FAIR      45  27  49 N14G20    29.92R
STERLING       FAIR      45  21  39 NW18      29.91S
HOLYOKE        FAIR      45  27  49 NW17G24   29.91S
FORT MORGAN    FAIR      44  14  29 NW21      29.94S
$$

COZ086-089-092>099-221900-
...SOUTHEAST COLORADO...

CITY           SKY/WX    TMP DP  RH WIND       PRES   REMARKS
PUEBLO         FAIR      47  11  23 NW10      29.95F
LA JUNTA       FAIR      41  29  62 W7        29.98R
LAMAR          FAIR      46  27  47 NW12G18   29.95R
SPRINGFIELD      N/A     47  27  45 NW17      29.95R
$$




USA.gov is the U.S. government's official web portal to all federal, state and local government web resources and services.